Little Rock, AR

9:28 PM CDT on August 19, 2017 (GMT -0500)
Adams

Weather History for KLIT - March, 2013

Change the Weather History Date:

Tuesday, March 5, 2013

  Actual Average Record
Temperature  
Mean Temperature 51 °F 50 °F  
Max Temperature 61 °F 60 °F 82 °F (1918)
Min Temperature 41 °F 40 °F 17 °F (1960)
Degree Days  
Heating Degree Days 14 15  
Month to date heating degree days 108 78  
Since 1 July heating degree days 2394 2591  
Cooling Degree Days 0 0  
Month to date cooling degree days 0 0  
Year to date cooling degree days 5 2  
Growing Degree Days 1 (Base 50)    
Moisture  
Dew Point 34 °F    
Average Humidity 57    
Maximum Humidity 89    
Minimum Humidity 24    
Precipitation  
Precipitation 0.08 in 0.15 in 1.97 in (1923)
Month to date precipitation 0.08 0.71  
Year to date precipitation 9.64 7.92  
Snow  
Snow 0.00 in 0.00 in 2.50 in (2015)
Month to date snowfall 0.0 0.1  
Since 1 July snowfall 10.6 3.2  
Snow Depth 0.00 in    
Sea Level Pressure  
Sea Level Pressure 30.05 in    
Wind  
Wind Speed 15 mph (WNW)    
Max Wind Speed 30 mph    
Max Gust Speed 41 mph    
Visibility 9 miles    
Events Rain    
T = Trace of Precipitation, MM = Missing Value Source: NWS Daily Summary

Daily Weather History Graph

Daily Weather History Graph

Search for Another Location

Airport or City:

Trip Planner

Search our weather history database for the weather conditions in past years. The results will help you decide how hot, cold, wet, or windy it might be!

Date:

Astronomy

Mar. 05, 2013 Rise Set
Actual Time 6:32 AM CST 6:08 PM CST
Civil Twilight 6:07 AM CST 6:33 PM CST
Nautical Twilight 5:38 AM CST 7:02 PM CST
Astronomical Twilight 5:08 AM CST 7:32 PM CST
Moon 1:34 AM CST (3/5) 11:58 AM CST (3/5)
Length of Visible Light 12h 26m
Length of Day
11h 35m
Last Quarter, 40% of the Moon is Illuminated
Mar 5
Last Quarter
Mar 11
New
Mar 19
First Quarter
Mar 27
Full
Apr 2
Last Quarter

Hourly Weather History & Observations

Time (CST) Temp. Windchill Dew Point Humidity Pressure Visibility Wind Dir Wind Speed Gust Speed Precip Events Conditions
1:53 AM 60.1 °F - 54.0 °F 80% 29.77 in 10.0 mi WSW 6.9 mph - N/A   Mostly Cloudy
2:46 AM 57.2 °F - 53.6 °F 88% 29.77 in 10.0 mi West 4.6 mph - N/A   Mostly Cloudy
2:53 AM 57.0 °F - 54.0 °F 89% 29.78 in 10.0 mi West 3.5 mph - N/A   Mostly Cloudy
3:21 AM 55.4 °F - 51.8 °F 88% 29.78 in 10.0 mi NW 5.8 mph - N/A   Scattered Clouds
3:53 AM 54.0 °F - 48.9 °F 83% 29.81 in 10.0 mi WNW 6.9 mph - N/A   Scattered Clouds
4:53 AM 55.0 °F - 48.9 °F 80% 29.86 in 10.0 mi WNW 18.4 mph 23.0 mph N/A   Mostly Cloudy
5:35 AM 53.6 °F - 46.4 °F 77% 29.89 in 10.0 mi NW 21.9 mph 28.8 mph 0.00 in Rain Light Rain
5:53 AM 51.1 °F - 41.0 °F 68% 29.93 in 10.0 mi NW 21.9 mph 35.7 mph 0.00 in   Overcast
6:53 AM 45.0 °F 37.1 °F 39.9 °F 82% 29.99 in 7.0 mi NW 19.6 mph 26.5 mph 0.00 in Rain Light Rain
7:09 AM 44.6 °F 37.2 °F 39.2 °F 81% 29.99 in 3.0 mi NW 17.3 mph - 0.00 in Rain Rain
7:41 AM 44.6 °F 38.8 °F 39.2 °F 81% 30.01 in 3.0 mi WNW 11.5 mph - 0.05 in Rain Rain
7:53 AM 44.1 °F 37.1 °F 39.9 °F 85% 30.03 in 4.0 mi WNW 15.0 mph - 0.07 in Rain Rain
8:53 AM 46.0 °F 38.8 °F 39.0 °F 76% 30.07 in 10.0 mi NW 18.4 mph 23.0 mph 0.01 in   Mostly Cloudy
9:53 AM 48.0 °F - 36.0 °F 63% 30.10 in 10.0 mi WNW 20.7 mph 36.8 mph N/A   Overcast
10:53 AM 48.0 °F - 33.1 °F 56% 30.12 in 10.0 mi NW 21.9 mph 34.5 mph N/A   Mostly Cloudy
11:53 AM 52.0 °F - 30.9 °F 45% 30.12 in 10.0 mi WNW 20.7 mph 27.6 mph N/A   Scattered Clouds
12:53 PM 54.0 °F - 28.0 °F 37% 30.10 in 10.0 mi WNW 23.0 mph 36.8 mph N/A   Partly Cloudy
1:53 PM 55.0 °F - 23.0 °F 29% 30.11 in 10.0 mi WNW 19.6 mph 32.2 mph N/A   Clear
2:53 PM 54.0 °F - 19.0 °F 25% 30.14 in 10.0 mi WNW 21.9 mph 31.1 mph N/A   Clear
3:53 PM 54.0 °F - 18.0 °F 24% 30.14 in 10.0 mi WNW 21.9 mph 28.8 mph N/A   Clear
4:53 PM 52.0 °F - 18.0 °F 26% 30.16 in 10.0 mi WNW 20.7 mph 27.6 mph N/A   Clear
5:53 PM 50.0 °F - 17.1 °F 27% 30.18 in 10.0 mi WNW 17.3 mph 24.2 mph N/A   Clear
6:53 PM 48.9 °F - 18.0 °F 29% 30.20 in 10.0 mi WNW 13.8 mph 21.9 mph N/A   Clear
7:53 PM 45.0 °F 40.6 °F 21.0 °F 39% 30.22 in 10.0 mi West 8.1 mph - N/A   Clear
8:53 PM 44.1 °F 39.5 °F 21.0 °F 40% 30.24 in 10.0 mi WNW 8.1 mph - N/A   Clear
9:53 PM 44.1 °F 38.1 °F 21.9 °F 42% 30.27 in 10.0 mi NW 11.5 mph - N/A   Clear
10:53 PM 42.1 °F 37.1 °F 21.9 °F 45% 30.28 in 10.0 mi West 8.1 mph - N/A   Clear
11:53 PM 42.1 °F 37.7 °F 23.0 °F 47% 30.28 in 10.0 mi NW 6.9 mph - N/A   Clear